Flag for United Kingdom Weather past 2 weeks in Newport (Isle of Wight), England, United Kingdom

Now
70 °F

Mild.


Feels Like: 70 °F
Forecast: 62 / 69 °F
Wind: 25 mph from West

Location: Solent M. R. S. C.

Current Time: Jul 31, 2014 at 7:30:29 PM

Latest Report: Jul 31, 2014 at 6:00 PM


Visibility: N/A

Pressure: 29.92 "Hg

Humidity: 72%

Dew point: 60 °F

Location of Newport (Isle of Wight)Location

Historic Weather in Newport (Isle of Wight) — Graph

°F

Newport (Isle of Wight) temperature yesterday

Maximum temperature yesterday: 74 °F (at 2:00 PM)
Minimum temperature yesterday: 60 °F (at 6:00 AM)
Average temperature yesterday: 68 °F

Past Weeks' High & Low Weather Summary

 TemperatureHumidityPressure
High85 °F (Jul 24, 2:00 PM)95% (Jul 19, 9:00 AM)30.21 "Hg (Jul 19, 9:00 AM)
Low58 °F (Jul 31, 6:00 AM)32% (Jul 22, 4:00 PM)29.73 "Hg (Jul 19, 6:00 PM)
Average70 °F68%30.00 "Hg
* Reported Jul 16 6:00 PM — Jul 31 6:00 PM, Newport (Isle of Wight), Weather by CustomWeather, © 2014

Note: Actual official high and low records may vary slightly from our data, if they occured in-between our weather recording intervals... More about our weather records

Advertising

Newport (Isle of Wight) weather history for previous 24 hours

 ConditionsComfort  
Time TempWeatherWind HumidityBarometerVisibility
6:00 PM
Jul 31
70 °FMild.25 mph72%29.92 "HgN/A
5:00 PM71 °FMild.22 mph70%29.93 "HgN/A
4:00 PM70 °FMild.20 mph68%29.94 "HgN/A
3:00 PM71 °FMild.20 mph66%29.95 "HgN/A
2:00 PM71 °FMild.18 mph65%29.96 "HgN/A
1:00 PM72 °FMild.15 mph64%29.96 "HgN/A
12:00 PM69 °FMild.15 mph65%29.98 "HgN/A
11:00 AM67 °FMild.17 mph72%29.99 "HgN/A
10:00 AM67 °FMild.14 mph70%30.00 "HgN/A
9:00 AM64 °FMild.14 mph73%30.00 "HgN/A
8:00 AM62 °FMild.9 mph83%30.00 "HgN/A
7:00 AM60 °FCool.7 mph86%30.00 "HgN/A
6:00 AM58 °FCool.5 mph88%30.00 "HgN/A
5:00 AM59 °FCool.7 mph86%30.00 "HgN/A
4:00 AM59 °FCool.8 mph85%30.00 "HgN/A
3:00 AM59 °FCool.6 mph85%30.01 "HgN/A
2:00 AM60 °FCool.9 mph82%30.01 "HgN/A
1:00 AM62 °FCool.7 mph75%30.01 "HgN/A
12:00 AM63 °FMild.10 mph68%30.02 "HgN/A
11:00 PM
Jul 30
66 °FMild.16 mph64%30.01 "HgN/A
10:00 PM69 °FMild.16 mph66%30.01 "HgN/A
9:00 PM69 °FMild.17 mph81%30.01 "HgN/A
8:00 PM70 °FMild.21 mph75%29.99 "HgN/A
7:00 PM72 °FMild.22 mph70%29.98 "HgN/A
Weather by CustomWeather, © 2014

See weather overviewHow to use our weather pages